STARLINK-32492, 62050

Orbit data source: Space-Track

STARLINK-32492, 62050 is a payload satellite owned by SpaceX/Seattle (US) in LEO that was launched on Thu, 21 Nov 2024 UTC via an FALCON 9 launch vehicle from the Air Force Eastern Test Range (AFETR). Payload-class satellites include a variety of spacecraft equipped with specific instruments for various scientific and technological missions. These include communications satellites like Starlink; space stations such as the ISS; scientific satellites like the Hubble; Earth observation satellites from companies like Planet Labs, Umbra, and HawkEye 360; GPS; miniature CubeSats for education and research; and military/defense satellites.

Loading next visibility...
Identifier
62050, 2024-216U
Orbit
LEO
Last TLE update
9 hours ago
Origin
Manufacturer
SpaceX/Seattle
Mission
Operational Commercial Communications
Bus & Motor
STARLINK V2M, Unknown motor
Mass
730 kg wet, ~700 kg dry
Launch date (UTC)
2024-11-21 (7 months ago)
Launch vehicle
FALCON 9
Launch site
Air Force Eastern Test Range (AFETR)
Object type
Payload
Rocket body
Debris
Shape & HBR
Box + 2 Pan, 29 m
Radar Cross Section
36.964 m², Large (>1 m²)

Expand to show TLE details & history

TLE from 9 hours ago
0 STARLINK-32492
1 62050U 24216U   25181.87609977  .00017961  00000-0  66019-3 0  9997
2 62050  42.9978 245.3834 0002433 276.7340  83.3235 15.27599843 35289
Epoch: 2025-06-30T21:01Z
TLE epoch observation values (Epoch: 2025-06-30T21:01:35.02Z)
Latitude
0.00002°
Longitude
10.80788°
Altitude
482.571 km
Speed
7.626 km/s
True Right ascension
16h 21m 32s
True Declination
0° 00' 00"
Sunlit
Object was in full shadow at epoch
Visualization orbit readout
Latitude
-31.39965°
Longitude
-31.97541°
Altitude
490.086 km
Speed
7.621 km/s
Apparent Right ascension
10h 12m 52s
Apparent Declination
-52° 28' 35"
Sunlit
Object is in partial shadow
Visualization observer readout
Local Sidereal Time
17:51:18
Azimuth
231.181° WSW
Elevation
-44.704°
Doppler factor
1
Orbital elements
Apogee altitude
486.605 km
Perigee altitude
483.265 km
Semi-major axis
6,863.072 km
Eccentricity
0.00024
Inclination
42.9978°
RAAN
245.3834°
Arg. of periapsis
276.734°
True anomaly
Unknown
Mean anomaly
83.3235°
Eccentric anomaly
Unknown
Mean motion
3.81738 °/min
Orbital period
94.31 mins
BSTAR
0.00066019
Loading maneuver chart data...
Loading SW <> Apogee altitude chart data...
Loading historical data...
Loading historical data...
Loading historical data...
Loading historical data...
Loading historical data...
Loading historical data...
Loading historical data...

STARLINK-32492 Visibility forecast

Observer location: undefined°, undefined°

Span
Click to sort rows by Start time (UTC) header in descending order
Start Az.
Max El. time (UTC)
Max El. Az.
Max El.
End time (UTC)
End Az.
5 mins2025-07-01 08:15:33.112Z231.712° WSW2025-07-01 08:17:33.112Z159.789° S42.009°2025-07-01 08:20:33.112Z76.974° E
5 mins2025-07-01 09:54:33.112Z283.959° WNW2025-07-01 09:56:33.112Z349.415° N39.177°2025-07-01 09:59:33.112Z69.762° E
5 mins2025-07-01 11:33:33.112Z294.277° NW2025-07-01 11:35:33.112Z344.104° N41.415°2025-07-01 11:38:33.112Z91.661° ESE
5 mins2025-07-01 13:12:33.112Z268.508° W2025-07-01 13:14:33.112Z215.289° SW32.927°2025-07-01 13:17:33.112Z142.077° SSE
|